User: anonymous   Login
Location: Unspecified
(0.0000°N, 0.0000°E)
Time: 16:42:42
(UTC+00:00)
Language:

USA 171 - Orbit

View from above orbital plane
View from above orbital plane
View from above satellite
View from above satellite

Ground track
Ground track

The orbit data is extracted from the following two-line orbital elements,

1 27937U 03041A   17051.58150583 0.00000000  00000-0  00000-0 0    08
2 27937   9.1038  67.8901 0047821 202.9672 156.8297  1.00270000    00
Epoch (UTC): 20 February 2017 13:57:22
Eccentricity: 0.0047821
inclination: 9.1038°
perigee height: 35585 km
apogee height: 35988 km
right ascension of ascending node: 67.8901°
argument of perigee: 202.9672°
revolutions per day: 1.00270000
mean anomaly at epoch: 156.8297°
orbit number at epoch: 0

The dashed part of the orbit path shows where the satellite is in the earth's shadow,  

DLR